FW7330 Weather Reports


time (UTC)temp
C
wind
direction
speed
KPH
gust
KPH
rain 1hr
cm
rain 24hr
cm
rain mn
cm
humidity
%
barometer
mb
20260504140209 16 357 3.2 4.8 0.00 0.56 0.00 77 1018.6
20260504130154 15 204 1.6 3.2 0.03 0.56 0.56 94 1018.7
20260504120142 16 54 1.6 3.2 0.03 0.53 0.53 94 1019.0
20260504110228 17 230 1.6 1.6 0.30 0.51 0.51 91 1018.9
20260504100215 18 231 3.2 9.7 0.00 0.20 0.20 84 1018.1
20260504080146 18 283 9.7 17.7 0.00 0.20 0.20 84 1016.7
20260504070235 19 270 11.3 20.9 0.00 0.20 0.20 82 1016.2
20260504060221 20 279 16.1 27.4 0.00 0.20 0.20 79 1016.0
20260504050247 20 303 12.9 20.9 0.00 0.20 0.20 79 1015.9
20260504045016 20 293 11.3 24.1 0.00 0.20 0.20 78 1015.9
20260504043722 20 290 12.9 25.7 0.00 0.20 0.20 81 1016.3
20260504042736 20 306 4.8 12.9 0.00 0.20 0.20 81 1016.3
20260504041446 20 339 8.0 12.9 0.00 0.20 0.20 81 1016.4
20260504040256 20 327 9.7 16.1 0.00 0.20 0.20 80 1016.6
20260504035002 20 324 4.8 11.3 0.00 0.20 0.20 80 1016.6
20260504033709 20 288 6.4 12.9 0.00 0.20 0.20 80 1016.8
20260504032623 20 282 8.0 20.9 0.00 0.20 0.20 79 1016.8
20260504031432 19 309 12.9 24.1 0.00 0.20 0.20 79 1017.1
20260504030140 19 310 6.4 14.5 0.00 0.20 0.20 80 1017.3
20260504025030 19 322 8.0 11.3 0.00 0.20 0.20 82 1017.3
20260504023800 19 294 3.2 6.4 0.00 0.20 0.20 82 1017.6
20260504022710 19 39 4.8 9.7 0.00 0.20 0.20 84 1017.6
20260504021419 19 12 4.8 11.3 0.00 0.20 0.20 85 1017.7
20260504020229 19 309 4.8 11.3 0.00 0.20 0.20 84 1017.8
20260504014936 19 282 8.0 12.9 0.00 0.20 0.20 82 1018.0
20260504013746 19 262 6.4 12.9 0.03 0.20 0.20 86 1018.3
20260504012657 18 273 8.0 11.3 0.03 0.20 0.20 86 1018.7
20260504011403 18 285 11.3 17.7 0.05 0.20 0.20 85 1019.1
20260504010214 18 274 11.3 24.1 0.05 0.20 0.20 87 1019.3
20260504005022 17 294 11.3 16.1 0.08 0.20 0.20 87 1019.5
20260504003728 17 293 6.4 11.3 0.05 0.18 0.18 89 1019.7
20260504002641 17 256 4.8 4.8 0.05 0.18 0.18 88 1019.8
20260504001348 17 294 9.7 12.9 0.03 0.15 0.15 87 1019.7
20260504000238 18 280 8.0 14.5 0.05 0.15 0.15 85 1019.7
20260503235007 17 276 8.0 12.9 0.03 0.13 0.13 91 1019.7
20260503233714 17 305 6.4 14.5 0.05 0.13 0.13 96 1019.5
20260503232628 17 314 1.6 3.2 0.10 0.13 0.13 96 1019.4
20260503231437 17 276 0.0 1.6 0.13 0.13 0.13 96 1019.4
20260503230143 17 148 1.6 3.2 0.10 0.10 0.10 96 1019.4
20260503224953 17 216 0.0 1.6 0.10 0.10 0.10 96 1019.4
20260503223803 17 110 1.6 3.2 0.08 0.08 0.08 96 1019.5
20260503222613 16 267 1.6 1.6 0.03 0.03 0.03 96 1019.5
20260503221421 16 225 1.6 3.2 0.00 0.00 0.00 96 1019.6
20260503220231 16 250 0.0 1.6 0.00 0.00 0.00 96 1019.2
20260503214938 16 248 0.0 1.6 0.00 0.00 0.00 96 1019.0
20260503213749 16 219 1.6 3.2 0.00 0.00 0.00 96 1018.9
20260503212702 16 0.0 1.6 0.00 0.00 0.00 96 1018.5
20260503211409 16 238 1.6 1.6 0.00 0.00 0.00 96 1018.6
20260503210219 16 236 0.0 1.6 0.00 0.00 0.00 96 1018.7
20260503205005 16 0.0 1.6 0.00 0.00 0.00 96 1018.3
20260503203816 16 237 1.6 1.6 0.00 0.00 0.00 96 1018.5
20260503202649 16 236 0.0 1.6 0.00 0.00 0.00 96 1018.4
20260503201436 16 0.0 1.6 0.00 0.00 0.00 95 1018.3
20260503200205 16 0.0 0.0 0.00 0.00 0.00 95 1018.2
20260503195015 16 237 0.0 1.6 0.00 0.00 0.00 95 1018.3
20260503193722 16 0.0 0.0 0.00 0.00 0.00 95 1018.4
20260503192716 16 0.0 1.6 0.00 0.00 0.00 95 1018.4
20260503191446 16 206 1.6 3.2 0.00 0.00 0.00 96 1018.4
20260503190151 16 132 0.0 1.6 0.00 0.00 0.00 96 1018.4
20260503185100 16 170 1.6 3.2 0.00 0.00 0.00 96 1018.5
20260503183811 16 148 0.0 1.6 0.00 0.00 0.00 96 1018.5
20260503182620 16 0.0 0.0 0.00 0.00 0.00 96 1018.6
20260503181429 16 0.0 1.6 0.00 0.00 0.00 96 1018.5
20260503180319 16 175 0.0 1.6 0.00 0.00 0.00 96 1018.6
20260503174944 16 188 1.6 3.2 0.00 0.00 0.00 96 1018.5
20260503173831 15 119 1.6 3.2 0.00 0.00 0.00 96 1018.4
20260503172601 15 141 3.2 4.8 0.00 0.00 0.00 96 1018.5
20260503171409 15 146 1.6 1.6 0.00 0.00 0.00 96 1018.7
20260503170217 15 181 0.0 1.6 0.00 0.00 0.00 96 1018.7
20260503150149 16 88 1.6 3.2 0.00 0.00 0.00 95 1019.7